sat.trackr.live / text

‹ back to catalog

STARLINK-30119

NORAD 56823 · 2023-079A

PAYLOAD ACTIVE UNKNOWN

§ Identity

Operator
Country
US
Launch date
2023-06-04
Launch site
AFETR
Launch vehicle
Mass (kg)
RCS (m²)

Purposes: comms

External: N2YO · Heavens-Above · Gunter

§ Orbital elements

Epoch: 2026-05-25T01:09:43.340256Z

Period
94.27 min
Inclination
43.0031°
Eccentricity
0.0001257
Mean motion
15.27572066 rev/d
Perigee alt
482.2 km
Apogee alt
483.9 km
Semi-major
6,861.2 km
B*
2.0510e-5
RAAN
36.0505°
Arg perigee
271.9999°
Mean anomaly
88.0708°
Rev number
16,499

§ Raw data

STARLINK-301191 56823U 23079A   26145.04841829  .00000302  00000+0  20510-4 0  99952 56823  43.0031  36.0505 0001257 271.9999  88.0708 15.27572066164998

JSON: /api/v1/satellites/56823 · /tle

For live sub-satellite position, see the globe view (requires WebGL).

§ Visibility from observer

Set your observer location to see the next 7 days of passes ≥ 10°. The values pass through the URL so the page stays shareable.

No JS? Fill the form by hand. The geolocation button needs JavaScript.